Regional Weather Roundup
Issued by NWS

Home | Current Version | Previous Version | Graphics & Text | Print | Product List | Glossary Off
Versions: 1 2 3 4 5 6 7 8 9 10 11 12 13 14 15 16 17 18 19 20 21 22 23 24 25 26 27 28 29 30 31 32 33 34 35 36 37 38 39 40 41 42 43 44 45 46 47 48 49 50

000
ASUS43 KTOP 231508
RWRKS

WEATHER ROUNDUP FOR KANSAS
NATIONAL WEATHER SERVICE GOODLAND KS
1000 AM CDT WED AUG 23 2017

NOTE:  "FAIR" INDICATES FEW OR NO CLOUDS BELOW 12,000 FEET WITH NO
SIGNIFICANT WEATHER AND/OR OBSTRUCTIONS TO VISIBILITY.

KSZ001>006-013>018-027>032-041>047-231600-
NORTHWEST KANSAS

CITY           SKY/WX    TMP DP  RH WIND       PRES   REMARKS
GOODLAND       SUNNY     65  51  60 S21       30.20S
HAYS           SUNNY     70  52  52 S10       30.20F
HILL CITY      SUNNY     69  52  54 S9        30.20F
RUSSELL        SUNNY     70  50  49 S12       30.18S
$$

KSZ061>065-074>080-084>089-231600-
SOUTHWEST KANSAS

CITY           SKY/WX    TMP DP  RH WIND       PRES   REMARKS
DODGE CITY       N/A     67  51  56 MISG      30.22R
ELKHART          N/A     66  66 100 SE7         N/A
GARDEN CITY    SUNNY     67  56  67 S10       30.21F
GREAT BEND     SUNNY     69  52  54 SE10      30.19F
LIBERAL        SUNNY     69  59  70 SE10      30.21S
PRATT          SUNNY     66  51  57 SE7       30.20S
$$

KSZ066>073-081>083-090>101-231600-
SOUTHEAST KANSAS

CITY           SKY/WX    TMP DP  RH WIND       PRES   REMARKS
CHANUTE        SUNNY     72  56  57 E12       30.16S
COFFEYVILLE    SUNNY     72  58  61 NE12      30.13S
HUTCHINSON     SUNNY     70  53  54 E8        30.17F
MEDICINE LODGE   N/A     70  50  49 E7        30.17S
NEWTON         SUNNY     70  52  52 SE9       30.18F
PARSONS        SUNNY     71  56  58 VRB6      30.16R
WICHITA INTL   SUNNY     72  52  49 E12       30.16F
WICHITA JABRA  SUNNY     69  55  60 E10       30.16F
WICHITA MCCONL SUNNY     70  50  49 E10       30.16F
WINFIELD       SUNNY     71  54  54 E8        30.17R
$$

KSZ007>012-019>026-033>040-048>060-102>105-231600-
NORTHEAST KANSAS

CITY           SKY/WX    TMP DP  RH WIND       PRES   REMARKS
CONCORDIA      SUNNY     69  53  56 S10       30.19R
EMPORIA        SUNNY     68  55  63 SE7       30.18S
LAWRENCE       SUNNY     68  57  68 CALM      30.18S
MANHATTAN      SUNNY     67  58  72 CALM      30.18S
MARYSVILLE     SUNNY     68  55  64 SW5       30.19S
OLATHE IND     SUNNY     71  54  54 CALM      30.18S
OLATHE EXE     SUNNY     68  54  60 SE5       30.18R
SALINA         SUNNY     72  52  49 SE10      30.19R
TOPEKA BILLARD SUNNY     69  60  73 CALM      30.18R
TOPEKA FORBES  SUNNY     70  56  61 E3        30.18R
$$




USA.gov is the U.S. government's official web portal to all federal, state and local government web resources and services.